7 Seeds

7 Seeds
Rating: 9.7 of 585832 person votes
Rank 999 /20,1487
Alternative: セブン シーズ;幻海奇情;幻海奇缘;幻海迷情;秘园情人;7Seeds;7 Mầm sống (Vietnamese);هفت دانه (Persian);سبعة حبوب (Arabic);سبعة بذور (Arabic);Septynios sėklos (Lithuanian);
Artists: Tamura Yumi
Author(s): Tamura Yumi
Genres: RomanceDramaPsychologicalActionJoseiMysterysci fiAdventurehorror
Release: 2015
Status: Ongoing
Summary:

Scientists had predicted this disaster, and in response, the leaders of every country met to develop a plan for human survival before the meteor hit. The Seven Seeds project was developed out of this meeting. Each country froze a number of young healthy people, which allowed them to survive the meteor. After the computer determined that Earth was once again safe for human life, it released them into the world.

The Japanese government created five groups of survivors: Winter group, Spring group, Summer group A, Summer group B, and Fall group. Each group consisted of seven members and one guide. The guide carried small tubes of poison on their necks to allow them to end their lives if their situation became unbearable. The Japanese government prepared seven "Fuji" as refuges for the groups. In each Fuji, the group would find seeds and numerous books instructing them on survival in the wilderness.

7 Seeds won the 2007 Shogakukan Manga Award for shoujo manga.

vol.29 ch.151 : [Impression] 37 Pages 2017-01-03 17:23:44
vol.29 ch.150 36 Pages 2016-02-29 06:04:00
vol.29 ch.149 v2 : Afterglow 37 Pages 2016-02-29 05:37:00
vol.29 ch.149 : Afterglow 37 Pages 2015-12-30 06:06:00
vol.29 ch.148 v2 : Mountains Chapter 13 36 Pages 2016-02-29 05:34:00
vol.29 ch.148 : Mountains Chapter 13 36 Pages 2015-12-30 03:29:00
vol.29 ch.147 : Mountains Chapter 12 [Resonance] 39 Pages 2015-11-26 02:15:00
vol.28 ch.146 : Mountains Chapter 11 [Regeneration] 38 Pages 2015-09-10 03:16:00
vol.28 ch.145 : Mountains Chapter 10 [Connection] 37 Pages 2015-08-13 02:17:00
vol.28 ch.144 : Choice 36 Pages 2015-07-07 09:37:00
vol.28 ch.143 : The Good Old Days 37 Pages 2015-03-29 19:38:00
vol.28 ch.142 : Mountains Chapter 7 [Temptation] 43 Pages 2015-02-20 23:11:00
vol.27 ch.141 : Mountains Chapter 6 [On] 38 Pages 2015-02-20 23:10:00
vol.27 ch.140 : Mountains Chapter 5 [-Individual Cases-] 37 Pages 2014-11-18 01:10:00
vol.27 ch.139 : Mountains Chapter 4 [Several Insights] 37 Pages 2014-10-21 04:51:00
vol.27 ch.138 : Mountains Chapter 3 [Hope] 37 Pages 2014-09-25 08:02:00
vol.27 ch.137 : Mountains Chapter 2 [Contact] 43 Pages 2014-08-04 00:14:00
vol.26 ch.136 : Mountains Chapter 1 [The Two Sados] 38 Pages 2014-07-04 08:03:00
vol.26 ch.135 : Ocean Chapter 11 [Fight] 37 Pages 2014-06-04 01:55:00
vol.26 ch.134 : Ocean Chapter 10 [Sight] 36 Pages 2014-05-12 08:41:00
vol.26 ch.133 : Ocean Chapter 9 [With] 37 Pages 2014-04-17 23:26:00
vol.26 ch.132 : Ocean Chapter 8 [Heart] 41 Pages 2014-03-31 00:57:00
vol.25 ch.131 : Ocean Chapter 7 [OSP] 35 Pages 2014-03-03 23:16:00
vol.25 ch.130 : Ocean Chapter 6 [When] 40 Pages 2014-02-17 14:34:00
vol.25 ch.129 : Ocean Chapter 5 [Where] 36 Pages 2014-02-10 19:03:00
vol.25 ch.128 : Ocean Chapter 4 [How] 37 Pages 2014-01-22 01:17:00
vol.25 ch.127 : Ocean Chapter 3 [What] 41 Pages 2013-12-20 00:00:00
vol.24 ch.126 : Ocean Chapter 2 [Why] 40 Pages 2013-12-15 05:21:00
vol.24 ch.125 : Ocean Chapter 1 [Who] 36 Pages 2013-11-14 14:24:00
vol.24 ch.124 : Awakening Insects Chapter 15 [Entrance] 36 Pages 2013-09-05 09:36:00
vol.24 ch.123 : Awakening Insects Chapter 14 [Synchro] 42 Pages 2013-04-29 00:00:00
vol.24 ch.122 : Awakening Insects Chapter 13 [Guidance] 34 Pages 2013-02-20 00:00:00
vol.23 ch.121 : Awakening Insects Chapter 12 [Aftereffect] 39 Pages 2013-01-29 00:00:00
vol.23 ch.120 : Awakening Insects Chapter 11 [Counterbalance] 34 Pages 2013-01-01 00:00:00
vol.23 ch.119 : Awakening Insects Chapter 10 [Backflow] 33 Pages 2012-12-25 00:00:00
vol.23 ch.118 : Awakening Insects Chapter 9 [Onrush] 35 Pages 2012-12-06 00:00:00
vol.23 ch.117 : Awakening Insects Chapter 8 [Acceleration] 34 Pages 2012-12-06 00:00:00
vol.22 ch.116 : Awakening Insects Chapter 7 [Progress] 39 Pages 2012-10-22 00:00:00
vol.22 ch.115 : Awakening Insects Chapter 6 [Warning] 37 Pages 2012-10-08 00:00:00
vol.22 ch.114 : Awakening Insects Chapter 5 [Omen] 39 Pages 2012-09-24 00:00:00
vol.22 ch.113 : Awakening Insects Chapter 4 [Feast] 37 Pages 2012-09-10 00:00:00
vol.22 ch.112 : Awakening Insects Chapter 3 [Victual] 42 Pages 2012-08-27 00:00:00
vol.21 ch.111 : Awakening Insects Chapter 2 [Grace] 38 Pages 2012-08-14 00:00:00
vol.21 ch.110 : Awakening Insects Chapter 1 [Lone Journey] 35 Pages 2012-07-30 00:00:00
vol.21 ch.109 : Interlude [Moonlight] 36 Pages 2012-07-16 00:00:00
vol.21 ch.108 : Minor Heat Chapter 23 [Can You Celebrate?] 36 Pages 2012-07-02 00:00:00
vol.21 ch.107 : Minor Heat Chapter 22 [Applause] 41 Pages 2012-06-19 00:00:00
vol.20 ch.106 : Minor Heat Chapter 21 [Youngsters] 37 Pages 2012-06-04 00:00:00
vol.20 ch.105 : Minor Heat Chapter 20 [Do As You Please] 35 Pages 2012-05-21 00:00:00
vol.20 ch.104 : Minor Heat Chapter 19 [Sailor's Song] 35 Pages 2012-05-07 00:00:00
vol.20 ch.103 : Minor Heat Chapter 18 [Pride] 36 Pages 2012-04-23 00:00:00
vol.20 ch.102 : Minor Heat Chapter 17 [Give Me Wings] 52 Pages 2012-04-09 00:00:00
vol.19 ch.101 : Minor Heat Chapter 16 [Sprout] 40 Pages 2012-03-26 00:00:00
vol.19 ch.100 : Minor Heat Chapter 15 [Love and Pain and Reassurance] 36 Pages 2012-03-12 00:00:00
vol.19 ch.99 : Minor Heat Chapter 14 [The Time of Rainbow and Sneakers] 37 Pages 2012-02-27 00:00:00
vol.19 ch.98 : Minor Heat Chapter 13 [365 Step March] 37 Pages 2012-02-20 00:00:00
vol.19 ch.97 : Minor Heat Chapter 12 [The Passage of Time] 42 Pages 2012-02-13 00:00:00
vol.18 ch.96.5 v2 : Fanbook c.Side chapter 9 Pages 2016-02-29 05:32:00
vol.18 ch.96.5 : Fanbook c.Side chapter 9 Pages 2016-01-01 13:14:00
vol.18 ch.96 : Minor Heat Chapter 11 [-BEWITCHED-] 42 Pages 2012-02-06 00:00:00
vol.18 ch.95 : Minor Heat Chapter 10 [Doll's House] 37 Pages 2012-02-01 00:00:00
vol.18 ch.94 : Minor Heat Chapter 9 [Broken Radio] 35 Pages 2012-01-23 00:00:00
vol.18 ch.93 : Minor Heat Chapter 8 [Between the Sky and You] 36 Pages 2012-01-16 00:00:00
vol.18 ch.92 : Minor Heat Chapter 7 [Someone in the Wind] 41 Pages 2012-01-09 00:00:00
vol.17 ch.91 : Minor Heat Chapter 6 [Lose One's Way] 40 Pages 2012-01-01 00:00:00
vol.17 ch.90 : Minor Heat Chapter 5 [A Good Day For Departure] 41 Pages 2011-12-25 00:00:00
vol.17 ch.89 : Minor Heat Chapter 4 [Look Up at the Stars in the Night] 36 Pages 2011-12-19 00:00:00
vol.17 ch.88 : Minor Heat Chapter 3 [Dancin' All Night] 37 Pages 2011-12-12 00:00:00
vol.17 ch.87 : Minor Heat Chapter 2 [Sindbad of the Beach] 41 Pages 2011-12-02 00:00:00
vol.16 ch.86 : Minor Heat Chapter 1 [Strangers] + Extra [Wish] 44 Pages 2011-11-25 00:00:00
vol.16 ch.85 : Summer Solstice Chapter 23 [Farewell] 37 Pages 2011-11-25 00:00:00
vol.16 ch.84 : Summer Solstice Chapter 22 [Divide] 35 Pages 2011-12-09 00:00:00
vol.16 ch.83 : Summer Solstice Chapter 21 [Lose] 36 Pages 2011-11-18 00:00:00
vol.16 ch.82 : Summer Solstice Chapter 20 [Convey] 40 Pages 2011-11-13 00:00:00
vol.15 ch.81 : Summer Solstice Chapter 19 [Fall] 39 Pages 2011-11-06 00:00:00
vol.15 ch.80 : Summer Solstice Chapter 18 [Love] 40 Pages 2011-10-08 00:00:00
vol.15 ch.79 : Summer Solstice Chapter 17 [Protect] 35 Pages 2011-09-06 00:00:00
vol.15 ch.78 : Summer Solstice Chapter 16 [Thirst] 37 Pages 2011-08-08 00:00:00
vol.15 ch.77 : Summer Solstice Chapter 15 [Understand] 41 Pages 2011-07-24 00:00:00
vol.14 ch.76 : Summer Solstice Chapter 14 [Strain] 40 Pages 2011-07-17 00:00:00
vol.14 ch.75 : Summer Solstice Chapter 13 [Resent] 41 Pages 2011-07-17 00:00:00
vol.14 ch.74 : Summer Solstice Chapter 12 [Know] 36 Pages 2011-07-07 00:00:00
vol.14 ch.73 : Summer Solstice Chapter 11 [Speak] 36 Pages 2011-06-08 00:00:00
vol.14 ch.72 : Summer Solstice Chapter 10 [Fall] 41 Pages 2011-05-19 00:00:00
vol.13 ch.71 : Summer Solstice Chapter 9 [Fly] 42 Pages 2011-05-05 00:00:00
vol.13 ch.70 : Summer Solstice Chapter 8 [Target] 42 Pages 2011-04-15 00:00:00
vol.13 ch.69 : Summer Solstice Chapter 7 [Find] 37 Pages 2011-03-28 00:00:00
vol.13 ch.68 : Summer Solstice Chapter 6 [Inquire] 35 Pages 2011-02-27 00:00:00
vol.13 ch.67 : Summer Solstice Chapter 5 [Pick Up] 42 Pages 2011-02-23 00:00:00
vol.12 ch.66 : Summer Solstice Chapter 4 [Think] 45 Pages 2011-02-11 00:00:00
vol.12 ch.65 : Summer Solstice Chapter 3 [Confuse] 37 Pages 2011-02-03 00:00:00
vol.12 ch.64 : Summer Solstice Chapter 2 [Feel] 34 Pages 2011-01-27 00:00:00
vol.12 ch.63 : Summer Solstice Chapter 1 [Acquire] 35 Pages 2011-01-20 00:00:00
vol.12 ch.62 : Ashes Chapter 12 [Gathering] 40 Pages 2011-01-12 00:00:00
vol.11 ch.61 : Ashes Chapter 11 [Circulation] 38 Pages 2011-01-06 00:00:00
vol.11 ch.60 : Ashes Chapter 10 [Linkage] 36 Pages 2010-12-25 00:00:00
vol.11 ch.59 : Ashes Chapter 9 [And Then There Were None] 41 Pages 2010-12-20 00:00:00
vol.11 ch.58 : Ashes Chapter 8 [Wuthering Heights] 37 Pages 2010-12-07 00:00:00
vol.11 ch.57 : Ashes Chapter 7 [On the Beach] 43 Pages 2010-12-05 00:00:00
vol.10 ch.56 : Ashes Chapter 6 [A Christmas Carol] 41 Pages 2010-11-28 00:00:00
vol.10 ch.55 : Ashes Chapter 5 [Strait is the Gate] 40 Pages 2010-11-28 00:00:00
vol.10 ch.54 : Ashes Chapter 4 [The Door into Summer] 36 Pages 2010-11-28 00:00:00
vol.10 ch.53 : Ashes Chapter 3 [The Forest is Alive] 37 Pages 2011-11-30 00:00:00
vol.10 ch.52 : Ashes Chapter 2 [Like Seaweed] 44 Pages 2011-11-30 00:00:00
vol.9 ch.51 : Ashes Chapter 1 [That Place] 34 Pages 2011-11-30 00:00:00
vol.9 ch.50 : Hail of Corn Chapter 15 [New World Symphony - Going Home] 38 Pages 2011-11-30 00:00:00
vol.9 ch.49 : Hail of Corn Chapter 14 [Pictures at an Exhibition Gnomus] 35 Pages 2011-11-30 00:00:00
vol.9 ch.48 : Hail of Corn Chapter 13 [Gypsy Life] 37 Pages 2011-11-30 00:00:00
vol.9 ch.47 : Hail of Corn Chapter 12 [The Carnival of the Animals] 45 Pages 2011-11-30 00:00:00
vol.8 ch.46 : Hail of Corn Chapter 11 [The Planets Suite - Jupiter] 37 Pages 2011-11-30 00:00:00
vol.8 ch.45 : Hail of Corn Chapter 10 [The Planets Suite - Mars] 35 Pages 2011-11-30 00:00:00
vol.8 ch.44 : Hail of Corn Chapter 9 [A Maiden's Prayer] 36 Pages 2011-11-30 00:00:00
vol.8 ch.43 : Hail of Corn Chapter 8 [Moonlight Sonata] 37 Pages 2011-11-30 00:00:00
vol.8 ch.42 : Hail of Corn Chapter 7 [By the Beautifu Blue Danube] 46 Pages 2011-11-30 00:00:00
vol.7 ch.41 : Hail of Corn Chapter 6 [Ave Maria] 35 Pages 2011-11-29 00:00:00
vol.7 ch.40 : Hail of Corn Chapter 5 [Song of Farewell] 32 Pages 2011-11-29 00:00:00
vol.7 ch.39 : Hail of Corn Chapter 4 [My Fatherland - The Moldau] 39 Pages 2011-11-29 00:00:00
vol.7 ch.38 : Hail of Corn Chapter 3 [Humoresque] 33 Pages 2011-11-29 00:00:00
vol.7 ch.37 : Hail of Corn Chapter 2 [Peer Gynt Suite No.1- Morning Mood] 32 Pages 2011-11-29 00:00:00
vol.7 ch.36 : Hail of Corn Chapter 1 [Ride of the Valkyries] 22 Pages 2011-11-29 00:00:00
vol.6 ch.35 : Rainwater Chapter 10 [Rainbow's Beginning] 32 Pages 2008-11-29 00:00:00
vol.6 ch.34 : Rainwater Chapter 9 [Thunder's Voice] 22 Pages 2008-11-18 00:00:00
vol.6 ch.33 : Rainwater Chapter 8 [The Sakura Blooms] 16 Pages 2008-09-14 00:00:00
vol.6 ch.32 : Rainwater Chapter 7 [Sparrow Begins a Nest] 16 Pages 2008-09-14 00:00:00
vol.6 ch.31 : Rainwater Chapter 6 [Morphing Butterfly] 16 Pages 2008-08-30 00:00:00
vol.6 ch.30 : Rainwater Chapter 5 [Peach Tree Begins Laughter] 35 Pages 2008-08-30 00:00:00
vol.6 ch.29 : Rainwater Chapter 4 [Hibernating Insects Found Outdoors] 18 Pages 2008-08-30 00:00:00
vol.6 ch.28 : Rainwater Chapter 3 [Germinating Plants] 17 Pages 2008-08-20 00:00:00
vol.6 ch.27 : Rainwater Chapter 2 [Haze Begins as Cloud Cover] 9 Pages 2008-08-20 00:00:00
vol.5 ch.26 : Rainwater Chapter 1 [Awakening] 22 Pages 2008-02-05 00:00:00
vol.5 ch.25 : Pampas Grass Seeds Chapter 6 [June and October] 35 Pages 2008-01-22 00:00:00
vol.5 ch.24 : Pampas Grass Seeds Chapter 5 [Burning Wind and Cherry Blossoms] 21 Pages 2008-01-19 00:00:00
vol.5 ch.23 : Pampas Grass Seeds Chapter 4 [Milk and Grave] 19 Pages 2008-01-19 00:00:00
vol.5 ch.22 : Pampas Grass Seeds Chapter 3 [Tobacco and Moon] 36 Pages 2007-10-12 00:00:00
vol.5 ch.21 : Pampas Grass Seeds Chapter 2 [Earthworms and Corn] 22 Pages 2007-10-12 00:00:00
vol.5 ch.20 : Pampas Grass Seeds Chapter 1 [Ants and Potatoes] 30 Pages 2007-10-12 00:00:00
vol.4 ch.19 : Winter Chapter 4 [Journey] 37 Pages 2007-10-12 00:00:00
vol.4 ch.18 : Winter Chapter 3 [The Other Side of the Rainbow] 30 Pages 2007-10-12 00:00:00
vol.4 ch.17 : Winter Chapter 2 [Rain at Night] 33 Pages 2007-10-12 00:00:00
vol.4 ch.16 : Winter Chapter 1 [Howling] 32 Pages 2007-10-12 00:00:00
vol.4 ch.15 : East Wind Chapter 4 [Aim and Object] 29 Pages 2007-10-12 00:00:00
vol.4 ch.14 : East Wind Chapter 3 [Sea of Trees] 27 Pages 2007-10-12 00:00:00
vol.3 ch.13 : East Wind Chapter 2 [Spirit of Sound] 40 Pages 2007-10-12 00:00:00
vol.3 ch.12 : East Wind Chapter 1 [Way Home] 26 Pages 2007-10-12 00:00:00
vol.3 ch.11 : Beginning of Summer Chapter 2 [Castle] 27 Pages 2007-10-12 00:00:00
vol.3 ch.10 : Beginning of Summer Chapter 1 [Arashi] 40 Pages 2007-10-12 00:00:00
vol.3 ch.9 : Early Spring Chapter 4 [Life] 53 Pages 2007-10-12 00:00:00
vol.2 ch.8 : Early Spring Chapter 3 [Stars] 43 Pages 2007-10-12 00:00:00
vol.2 ch.7 : Early Spring Chapter 2 [Water] 26 Pages 2007-10-12 00:00:00
vol.2 ch.6 : Early Spring Chapter 1 [Hanna] 52 Pages 2007-10-12 00:00:00
vol.2 ch.5 : Island Chapter 5 [The First Day] 58 Pages 2007-10-12 00:00:00
vol.1 ch.4 : Island Chapter 4 [Tender Beast] 51 Pages 2007-10-12 00:00:00
vol.1 ch.3 : Island Chapter 3 [Quiet Step] 40 Pages 2007-10-12 00:00:00
vol.1 ch.2 : Island Chapter 2 [White Sound] 40 Pages 2007-10-12 00:00:00
vol.1 ch.1 : Island Chapter 1 [Slow Awakening] 55 Pages 2007-10-12 00:00:00
vol.24 ch.125 : WHO 36 Pages 2013-11-14 09:23:00
vol.24 ch.124 : Entrance 36 Pages 2013-09-04 09:05:00
vol.24 ch.123 : Synchro 42 Pages 2013-04-29 20:22:00
vol.24 ch.122 : Guidance 34 Pages 2013-02-20 09:22:00
vol.23 ch.121 : Aftereffect 39 Pages 2013-01-29 12:19:00
vol.23 ch.120 : Counterbalance 34 Pages 2013-01-01 08:19:00
vol.23 ch.119 : Backflow 33 Pages 2012-12-25 09:24:00
vol.23 ch.118 : Onrush 35 Pages 2012-12-04 10:48:00
vol.23 ch.117 : Acceleration 34 Pages 2012-11-13 08:07:00
vol.22 ch.116 : Progress 39 Pages 2012-10-22 07:43:00
vol.22 ch.115 : Warning 37 Pages 2012-10-08 11:43:00
vol.22 ch.114 : Omen 39 Pages 2012-09-24 12:31:00
vol.22 ch.113 : Feast 37 Pages 2012-09-10 10:41:00
vol.22 ch.112 : Victual 42 Pages 2012-08-27 07:36:00
vol.21 ch.111 : Grace 38 Pages 2012-08-13 12:52:00
vol.21 ch.110 : Lone Journey 35 Pages 2012-07-30 13:26:00
vol.21 ch.109 : Moonlight 36 Pages 2012-07-16 10:49:00
vol.21 ch.108 : Can You Celebrate? 36 Pages 2012-07-02 08:28:00
vol.21 ch.107 : Applause 41 Pages 2012-06-19 10:02:00
vol.20 ch.106 : Youngsters 37 Pages 2012-06-04 07:10:00
vol.20 ch.105 : Do As You Please 35 Pages 2012-05-21 09:26:00
vol.20 ch.104 : Sailor's Song 35 Pages 2012-05-07 13:45:00
vol.20 ch.103 : Pride 36 Pages 2012-04-23 10:02:00
vol.20 ch.102 : Give Me Wings 52 Pages 2012-04-09 08:24:00
vol.19 ch.101 : Sprouts 40 Pages 2012-03-26 08:26:00
vol.19 ch.100 : Love and Pain and Reassurance 36 Pages 2012-03-12 09:47:00
vol.19 ch.99 : The Time of Rainbows and Sneakers 37 Pages 2012-02-27 11:09:00
vol.19 ch.98 : 365 Step March 37 Pages 2012-02-20 09:33:00
vol.19 ch.97 : The Passage of Time 42 Pages 2012-02-13 09:48:00
vol.18 ch.96 : Bewitched 42 Pages 2012-02-06 09:28:00
vol.18 ch.95 : Doll's House 37 Pages 2012-01-30 10:14:00
vol.18 ch.94 : Broken Radio 35 Pages 2012-01-23 11:00:00
vol.18 ch.93 : Between the Sky and You 36 Pages 2012-01-16 06:54:00
vol.18 ch.92 : Someone in the Wind 41 Pages 2012-01-09 06:39:00
vol.17 ch.91 : Lose One's Way 40 Pages 2012-01-01 11:06:00
vol.17 ch.90 : A Good Day For Departure 41 Pages 2011-12-25 13:52:00
vol.17 ch.89 : Look Up at the Stars in the Night 36 Pages 2011-12-19 13:41:00
vol.17 ch.88 : Dancin' All Night 37 Pages 2011-12-12 04:16:00
vol.17 ch.87 : Sindbad of the Beach 41 Pages 2011-12-02 07:34:00
vol.16 ch.86 : Strangers / Extra: Wish 44 Pages 2011-11-25 09:07:00
vol.16 ch.85 : Farewell 37 Pages 2011-11-25 09:06:00
vol.16 ch.84 : Divide 35 Pages 2011-11-18 10:25:00
vol.16 ch.83 : Lose 36 Pages 2011-11-18 10:24:00
vol.16 ch.82 : Convey 40 Pages 2011-11-13 03:57:00
vol.15 ch.80 : Love 40 Pages 2011-10-08 04:22:00
vol.15 ch.79 : Protect 35 Pages 2011-09-06 15:35:00
vol.15 ch.78 : Thirst 37 Pages 2011-09-06 15:35:00
vol.15 ch.77 : Understand 41 Pages 2011-09-06 15:36:00
vol.14 ch.76 : Strain 40 Pages 2011-09-06 15:42:00
vol.14 ch.75 : Resent 41 Pages 2011-09-06 15:43:00
vol.14 ch.74 : Know 36 Pages 2011-09-06 15:43:00
vol.14 ch.73 : Speak 36 Pages 2011-09-06 15:44:00
vol.14 ch.72 : Fall 41 Pages 2011-09-06 15:45:00
vol.13 ch.71 : Fly 42 Pages 2011-09-06 22:36:00
vol.13 ch.70 : Target 42 Pages 2011-09-06 22:37:00
vol.13 ch.69 : Find 37 Pages 2011-09-06 22:38:00
vol.13 ch.68 : Inquire 35 Pages 2011-09-06 22:39:00
vol.13 ch.67 : Pick Up 42 Pages 2011-09-06 22:40:00
vol.12 ch.66 : Think 45 Pages 2011-09-06 22:42:00
vol.12 ch.65 : Confuse 37 Pages 2011-09-06 22:43:00
vol.12 ch.64 : Feel 34 Pages 2011-09-06 22:44:00
vol.12 ch.63 : Acquire 35 Pages 2011-09-06 22:44:00
vol.12 ch.62 : Gathering 40 Pages 2011-09-06 22:45:00
vol.11 ch.61 : Circulation 38 Pages 2011-09-06 23:15:00
vol.11 ch.60 : Linkage 36 Pages 2011-09-06 23:16:00
vol.11 ch.59 : And Then There Were None 41 Pages 2011-09-06 23:17:00
vol.11 ch.58 : Wuthering Heights 37 Pages 2011-09-06 23:18:00
vol.11 ch.57 : On the Beach 43 Pages 2011-09-06 23:19:00
vol.10 ch.56 : Christmas Carol 38 Pages 2011-11-05 12:09:00
vol.10 ch.55 : Ashes 5 - Strait is The Gate 38 Pages 2011-11-05 12:07:00
vol.10 ch.54 : Ashes 4 - The Door Into Summer 35 Pages 2011-11-05 12:07:00
vol.10 ch.53 : Ashes 3 - The Forest is Alive 37 Pages 2011-11-05 12:02:00
vol.10 ch.52 : Ashes 2 - Like Seaweed 44 Pages 2011-11-05 12:01:00
vol.9 ch.51 : Ashes 1 - That Place 34 Pages 2011-11-05 12:00:00
vol.9 ch.50 : New World Symphony - Going Home 38 Pages 2011-11-05 12:00:00
vol.9 ch.49 : Pictures at an Exhibition - Gnomus 35 Pages 2011-11-05 11:59:00
vol.9 ch.48 : Gypsy Life 37 Pages 2011-11-05 11:58:00
vol.9 ch.47 : The Carnival of the Animals 45 Pages 2011-11-05 11:58:00
vol.8 ch.46 : The Planets Suite - Jupiter 37 Pages 2011-11-05 11:56:00
vol.8 ch.45 : The Planets Suite - Mars 35 Pages 2011-11-05 11:56:00
vol.8 ch.44 : A Maiden's Prayer 36 Pages 2011-11-05 11:55:00
vol.8 ch.43 : Moonlight Sonata 37 Pages 2011-11-05 11:55:00
vol.8 ch.42 : By The Beautiful Blue Danube 46 Pages 2011-11-05 11:55:00
vol.7 ch.41 : Ave Maria 35 Pages 2011-11-05 11:54:00
vol.7 ch.40 : Song of Farewell 33 Pages 2011-11-05 11:54:00
vol.7 ch.39 : My Fatherland - The Moldau 40 Pages 2011-11-05 11:53:00
vol.7 ch.38 : Humoresque 34 Pages 2011-11-05 11:53:00
vol.7 ch.37 : Peer Gynt Suite No. 1 - Morning Mood 33 Pages 2011-11-05 11:53:00
vol.7 ch.36 : Ride of the Valkyries 22 Pages 2011-11-05 11:52:00
vol.6 ch.35 : Rainbow's Beginning 32 Pages 2011-10-08 05:35:00
vol.6 ch.34 : Thunder's Voice 22 Pages 2011-10-08 05:34:00
vol.6 ch.33 : The Sakura Blooms 16 Pages 2011-10-08 05:34:00
vol.6 ch.32 : Sparrow Begins a Nest 16 Pages 2011-10-08 05:34:00
vol.6 ch.31 : Morphing Butterfly 16 Pages 2011-10-08 05:34:00
vol.6 ch.30 : Peach Tree Begins Laughter 35 Pages 2011-10-08 05:33:00
vol.6 ch.29 v2 17 Pages 2012-02-17 00:40:00
vol.6 ch.29 : Hibernating Insects Found Outdoors 18 Pages 2011-10-08 05:33:00
vol.6 ch.28 v2 17 Pages 2012-02-17 00:32:00
vol.6 ch.28 : Germinating Plants 17 Pages 2011-10-08 05:33:00
vol.6 ch.27 v2 21 Pages 2012-02-17 00:30:00
vol.6 ch.27 : Haze Begins as Cloud Cover 9 Pages 2011-10-08 05:33:00
vol.5 ch.26 : Awakening 22 Pages 2011-10-08 05:31:00
vol.5 ch.25 : June and October 35 Pages 2011-10-08 05:31:00
vol.5 ch.24 : Burning Wind and Cherry Blossoms 21 Pages 2011-10-08 05:30:00
vol.5 ch.23 : Milk and Grave 19 Pages 2011-10-08 05:30:00
vol.5 ch.22 : Tobacco and Moon 36 Pages 2011-10-08 05:30:00
vol.5 ch.21 : Earthworms and Corn 22 Pages 2011-10-08 05:30:00
vol.5 ch.20 : Ants and Potatoes 30 Pages 2011-10-08 05:30:00
vol.4 ch.19 : Journey 37 Pages 2011-10-08 05:29:00
vol.4 ch.18 : The Other Side of the Rainbow 30 Pages 2011-10-08 05:29:00
vol.4 ch.17 : Rain at Night 33 Pages 2011-10-08 05:29:00
vol.4 ch.16 : Howling 32 Pages 2011-10-08 05:29:00
vol.4 ch.15 : Aim and Object 29 Pages 2011-10-08 05:28:00
vol.4 ch.14 : Sea of Trees 27 Pages 2011-10-08 05:28:00
vol.3 ch.13 : Spirit of Sound 40 Pages 2011-10-08 05:28:00
vol.3 ch.12 : Way Home 26 Pages 2011-10-08 05:28:00
vol.3 ch.11 : Castle 27 Pages 2011-10-08 05:27:00
vol.3 ch.10 : Arashi 40 Pages 2011-10-08 05:27:00
vol.3 ch.9 : Life 53 Pages 2011-10-08 05:27:00
vol.2 ch.8 : Stars 43 Pages 2011-10-08 05:27:00
vol.2 ch.7 : Water 26 Pages 2011-10-08 05:26:00
vol.2 ch.6 : Hanna 52 Pages 2011-10-08 05:26:00
vol.2 ch.5 : The First Day 58 Pages 2011-10-08 04:35:00
vol.1 ch.4 : Tender Beast 51 Pages 2011-10-08 04:35:00
vol.1 ch.3 : Quiet Step 40 Pages 2011-10-08 04:34:00
vol.1 ch.2 : White Sound 40 Pages 2011-10-08 04:34:00
vol.1 ch.1 : Slow Awakening 55 Pages 2011-10-08 04:34:00
ch.152 38 Pages 2017-06-13 21:26:45
ch.151 37 Pages 2017-06-13 21:25:45
ch.150 36 Pages 2016-02-29 06:25:00
ch.149 v2 : Afterglow 37 Pages 2016-02-29 06:25:00
ch.149 : Afterglow 37 Pages 2015-12-30 02:42:00
ch.148 : Pursuit 36 Pages 2015-11-25 23:34:00
ch.147 : Renosance 39 Pages 2015-10-05 13:13:00
ch.146 : Mountains Chapter 011 [Regeneration] 38 Pages 2015-09-10 18:12:00
ch.145 37 Pages 2015-08-12 11:18:00
ch.144 : Choice 36 Pages 2015-07-09 13:20:00
ch.143 : The Good Old Days 37 Pages 2015-03-29 19:49:00
ch.142 : Temptation 43 Pages 2015-02-20 13:17:00
ch.141 : Mountains Chapter 006 38 Pages 2014-12-29 06:57:00
ch.140 : Individual Cases 37 Pages 2014-11-18 01:21:00
ch.139 : Several insights 37 Pages 2014-10-20 12:53:00
ch.138 : Hope 37 Pages 2014-09-25 06:07:00
ch.137 : Mountains Chapter 002 [Contact] 43 Pages 2014-09-25 06:06:00
ch.136 : The Two Sados 38 Pages 2014-07-01 07:46:00
ch.135 : Fight 37 Pages 2014-06-04 05:09:00
ch.134 : Sight 36 Pages 2014-05-07 15:43:00
ch.133 : With 37 Pages 2014-04-17 11:40:00
ch.132 : Contents 41 Pages 2014-03-31 01:11:00
ch.131 : Osp 35 Pages 2014-03-03 00:00:00
ch.130 : When 40 Pages 2014-03-03 00:00:00
ch.129 : Where 36 Pages 2014-01-31 00:00:00
ch.128 : How 37 Pages 2014-01-21 00:00:00
ch.127 : What 41 Pages 2013-12-20 00:00:00
ch.126 : Sea 40 Pages 2013-12-15 00:00:00
ch.125 : Who 36 Pages 2013-11-14 00:00:00
ch.124 : Entrance 36 Pages 2013-09-01 00:00:00
ch.123 : Synchro 42 Pages 2013-04-29 00:00:00
ch.122 : Guidance 34 Pages 2013-02-20 00:00:00
ch.121 : Aftereffect 43 Pages 2013-01-29 00:00:00
ch.120 : Counterbalance 34 Pages 2013-01-01 00:00:00
ch.119 : Backflow 33 Pages 2012-12-25 00:00:00
ch.118 : Onrush 35 Pages 2012-12-04 00:00:00
ch.117 : Acceleration 34 Pages 2012-11-13 00:00:00
ch.116 : Progress 39 Pages 2012-10-22 00:00:00
ch.115 : Warning 37 Pages 2012-10-08 00:00:00
ch.114 : Omen 39 Pages 2012-09-24 00:00:00
ch.113 : Feast 37 Pages 2012-09-10 00:00:00
ch.112 : Victual 42 Pages 2012-08-27 00:00:00
ch.111 : Grace 38 Pages 2012-08-13 00:00:00
ch.110 : Lone Journey 35 Pages 2012-07-30 00:00:00
ch.109 : Moonlight 36 Pages 2012-07-16 00:00:00
ch.108 : Can u Celebrate? 36 Pages 2012-07-02 00:00:00
ch.107 : Applause 41 Pages 2012-06-19 00:00:00
ch.106 : Youngsters 37 Pages 2012-06-04 00:00:00
ch.105 : Do As You Please 35 Pages 2012-05-21 00:00:00
ch.104 : Sailors Song 35 Pages 2012-05-07 00:00:00
ch.103 : Pride 36 Pages 2012-04-23 00:00:00
ch.102 : Give Me Wings 52 Pages 2012-04-09 00:00:00
ch.101 : Sprout 40 Pages 2012-03-26 00:00:00
ch.100 : Love and Pain and Reassurance 36 Pages 2012-03-12 00:00:00
ch.99 : The Time of Rainbows And Sneakers 37 Pages 2012-02-27 00:00:00
ch.98 : 365 Step March 37 Pages 2012-02-27 00:00:00
ch.97 : The Passage of Time 42 Pages 2012-02-13 00:00:00
ch.96 : Bewitched 42 Pages 2012-02-06 00:00:00
ch.95 : Doll's House 37 Pages 2012-01-30 00:00:00
ch.94 : Broken Radio 35 Pages 2012-01-23 00:00:00
ch.93 : Between The Sky and You 36 Pages 2012-01-16 00:00:00
ch.92 : Someone In The Wind 41 Pages 2012-01-09 00:00:00
ch.91 : Lose One's Way 40 Pages 2012-01-01 00:00:00
ch.90 : A Good Day For Departure 41 Pages 2011-12-25 00:00:00
ch.89 : Look Up at The Stars in The Night 36 Pages 2011-12-19 00:00:00
ch.88 : Dancin' All Night 37 Pages 2011-12-12 00:00:00
ch.87 : Sindbad of the Beach 41 Pages 2011-12-02 00:00:00
ch.86 : Strangers 44 Pages 2011-11-25 00:00:00
ch.85 : Farewell 37 Pages 2011-11-25 00:00:00
ch.84 : Divide 35 Pages 2011-11-18 00:00:00
ch.83 : Lose 36 Pages 2011-11-18 00:00:00
ch.82 : Convey 40 Pages 2011-11-18 00:00:00
ch.81 : Fall 39 Pages 2011-11-06 00:00:00
ch.80 : Love 40 Pages 2011-10-08 00:00:00
ch.79 : Protect 35 Pages 2011-09-05 00:00:00
ch.78 : Thirst 37 Pages 2011-08-07 00:00:00
ch.77 : Understand 41 Pages 2011-07-23 00:00:00
ch.76 : Strain 40 Pages 2011-07-16 00:00:00
ch.75 : Resent 41 Pages 2011-07-16 00:00:00
ch.74 : Know 36 Pages 2011-06-30 00:00:00
ch.73 : Speak 36 Pages 2011-06-06 00:00:00
ch.72 : Fall 41 Pages 2011-05-18 00:00:00
ch.71 : Fly 42 Pages 2011-05-04 00:00:00
ch.70 : Target 42 Pages 2011-05-04 00:00:00
ch.69 : Find 37 Pages 2011-03-23 00:00:00
ch.68 : Inquire 35 Pages 2011-02-20 00:00:00
ch.67 : Pick Up 42 Pages 2011-02-17 00:00:00
ch.66 : Think 45 Pages 2011-02-09 00:00:00
ch.65 : Confuse 37 Pages 2011-02-01 00:00:00
ch.64 : Feel 34 Pages 2011-01-25 00:00:00
ch.63 : Acquire 35 Pages 2011-01-18 00:00:00
ch.62 : Gathering 40 Pages 2011-01-11 00:00:00
ch.61 : Circulation 38 Pages 2011-01-01 00:00:00
ch.60 : Linkage 36 Pages 2011-01-01 00:00:00
ch.59 : And Then There Were None 41 Pages 2010-12-20 00:00:00
ch.58 : Wuthering Heights 37 Pages 2010-12-07 00:00:00
ch.57 : On The Beach 43 Pages 2010-11-30 00:00:00
ch.56 : A Christmas Carol 41 Pages 2010-11-23 00:00:00
ch.55 : Ashes 5 - Strait is The Gate 40 Pages 2010-11-19 00:00:00
ch.54 : Ashes 4 - The Door Into Summer 36 Pages 2010-11-19 00:00:00
ch.53 : Ashes 3 - The Forest is Alive 37 Pages 2010-11-19 00:00:00
ch.52 : Ashes 2 - Like Seaweed 44 Pages 2010-11-02 00:00:00
ch.51 : Ashes 1 - That Place 34 Pages 2010-08-27 00:00:00
ch.50 : Going Home 38 Pages 2010-08-25 00:00:00
ch.49 : Pictures at an Exhibition 35 Pages 2010-05-20 00:00:00
ch.48 : Gypsy Life 37 Pages 2010-03-15 00:00:00
ch.47 : The Carnival of the Animals 45 Pages 2009-12-28 00:00:00
ch.46 : The Planets Suite - Jupiter 37 Pages 2009-12-28 00:00:00
ch.45 : The Planets Suite - Mars 35 Pages 2009-12-28 00:00:00
ch.44 : A Maiden s Prayer 36 Pages 2009-12-28 00:00:00
ch.43 : Moonlight Sonata 37 Pages 2009-12-28 00:00:00
ch.42 : By The Beautiful Blue Danube 46 Pages 2009-12-28 00:00:00
ch.41 : Ave Maria 35 Pages 2009-12-28 00:00:00
ch.40 : Song of Farewell 32 Pages 2009-12-18 00:00:00
ch.39 : My Fatherland - The Moldau 39 Pages 2009-12-18 00:00:00
ch.38 : Humoreque 33 Pages 2009-12-18 00:00:00
ch.37 32 Pages 2009-12-18 00:00:00
ch.36 : Ride of the Valkyries 22 Pages 2009-12-18 00:00:00
ch.35 32 Pages 2009-12-18 00:00:00
ch.34 : Rainwater 21 Pages 2009-12-18 00:00:00
ch.33 : The Sakura Blooms 16 Pages 2009-12-18 00:00:00
ch.32 16 Pages 2009-12-18 00:00:00
ch.31 : Morphing Butterfly 16 Pages 2009-12-18 00:00:00
ch.30 35 Pages 2009-12-18 00:00:00
ch.29 17 Pages 2009-12-18 00:00:00
ch.28 17 Pages 2009-12-18 00:00:00
ch.27 16 Pages 2009-12-18 00:00:00
ch.26 22 Pages 2009-12-18 00:00:00
ch.25 : June and October 33 Pages 2009-12-18 00:00:00
ch.24 : Burning Wind and Cherry Blossom 20 Pages 2009-12-18 00:00:00
ch.23 : Milk and Grave 19 Pages 2009-12-18 00:00:00
ch.22 : Tobacco and Moon 36 Pages 2009-12-18 00:00:00
ch.21 : Earthworms and Corn 21 Pages 2009-12-18 00:00:00
ch.20 : Ants and Potatoes 28 Pages 2009-12-18 00:00:00
ch.19 : Journey 36 Pages 2009-12-18 00:00:00
ch.18 : The Other Side of the Rainbow 30 Pages 2009-12-18 00:00:00
ch.17 : Rain at Night 32 Pages 2009-12-18 00:00:00
ch.16 : Howling 32 Pages 2009-12-18 00:00:00
ch.15 : Aim and Object 28 Pages 2009-12-18 00:00:00
ch.14 : Sea of Trees 27 Pages 2009-12-18 00:00:00
ch.13 : Spirit of Sound 40 Pages 2009-12-18 00:00:00
ch.12 : Our Way Home 26 Pages 2009-12-18 00:00:00
ch.11 : Castle 27 Pages 2009-12-18 00:00:00
ch.10 : Arashi 39 Pages 2009-12-18 00:00:00
ch.9 : Life 52 Pages 2009-12-18 00:00:00
ch.8 : Stars 41 Pages 2009-12-18 00:00:00
ch.7 : Water 25 Pages 2009-12-18 00:00:00
ch.6 : Hana 50 Pages 2009-12-18 00:00:00
ch.5 : The First Day 55 Pages 2009-12-18 00:00:00
ch.4 : Tender Beast 50 Pages 2009-12-18 00:00:00
ch.3 : Quiet Step 40 Pages 2009-12-18 00:00:00
ch.2 : White Sand 39 Pages 2009-12-18 00:00:00
ch.1 : Slow Awakening 55 Pages 2009-12-18 00:00:00
vol.28 ch.151 : [Impression] 37 Pages 2017-01-03 18:31:44
vol.28 ch.150 36 Pages 2016-02-29 06:18:00
vol.28 ch.149 : Afterglow 37 Pages 2016-02-29 05:40:00
vol.28 ch.148 v2 36 Pages 2016-02-29 05:38:00
vol.28 ch.148 36 Pages 2015-12-30 04:09:00
vol.28 ch.147 39 Pages 2015-11-25 23:44:00
vol.28 ch.146 : Mountains Chapter 11 [Regeneration] 38 Pages 2015-10-05 13:24:00
vol.28 ch.145 37 Pages 2015-08-14 10:53:00
vol.28 ch.144 36 Pages 2015-08-12 11:25:00
vol.19 ch.143 37 Pages 2015-07-10 17:36:00
vol.19 ch.142 43 Pages 2015-07-10 17:35:00
vol.19 ch.141 38 Pages 2015-07-10 17:34:00
vol.18 ch.140 : Mountains Chapter 5 [-Individual Cases-] 37 Pages 2015-07-10 17:33:00
vol.18 ch.139 37 Pages 2015-07-10 17:32:00
vol.18 ch.138 37 Pages 2015-07-10 17:31:00
vol.18 ch.137 : Mountains Chapter 2 [Contact] 43 Pages 2015-07-10 17:30:00
vol.18 ch.136 38 Pages 2015-07-10 17:29:00
vol.18 ch.135 37 Pages 2015-07-10 17:27:00
vol.18 ch.134 36 Pages 2015-07-10 17:26:00
vol.18 ch.133 37 Pages 2015-07-10 17:25:00
vol.18 ch.132 41 Pages 2015-07-10 17:23:00
vol.18 ch.131 35 Pages 2015-07-10 17:22:00
vol.18 ch.130 40 Pages 2015-07-10 17:21:00
vol.18 ch.129 36 Pages 2015-07-10 17:20:00
vol.18 ch.128 37 Pages 2015-07-10 17:19:00
vol.18 ch.127 41 Pages 2015-07-10 17:18:00
vol.18 ch.126 40 Pages 2015-07-10 17:17:00
vol.18 ch.125 36 Pages 2015-07-10 17:14:00
vol.18 ch.124 : [Entrance] 36 Pages 2015-07-10 17:13:00
vol.18 ch.123 42 Pages 2015-07-10 17:11:00
vol.18 ch.122 : Guidance 34 Pages 2015-07-10 17:10:00
vol.18 ch.121 : Awakening Insects Chapter 12 [Aftereffect] 39 Pages 2015-07-10 17:09:00
vol.18 ch.120 : Awakening Insects Chapter 11 [Counterbalance] 34 Pages 2015-07-10 17:08:00
vol.18 ch.119 : Awakening Insects Chapter 10 [Backflow] 33 Pages 2015-07-10 17:07:00
vol.18 ch.118 : Onrush 35 Pages 2015-07-10 17:06:00
vol.18 ch.117 34 Pages 2015-07-10 17:03:00
vol.18 ch.116 : Awakening Insects Chapter 7 [Progress] 39 Pages 2015-07-10 17:02:00
vol.18 ch.115 : Warning 37 Pages 2015-07-10 17:00:00
vol.18 ch.114 : Awakening Insects Chapter 5 [Omen] 39 Pages 2015-07-10 16:59:00
vol.18 ch.113 : Awakening Insects Chapter 4 [Feast] 37 Pages 2015-07-10 16:58:00
vol.18 ch.112 : Awakening Insects Chapter 3 [Victual] 42 Pages 2015-07-10 16:57:00
vol.18 ch.111.5 : Fanbook Side Story [Memories - The Summer of Many] 9 Pages 2015-07-10 16:56:00
vol.18 ch.111 38 Pages 2015-07-10 16:55:00
vol.18 ch.110 35 Pages 2015-07-10 16:54:00
vol.18 ch.109 35 Pages 2015-07-10 16:52:00
vol.18 ch.108 35 Pages 2015-07-10 16:51:00
vol.18 ch.107 41 Pages 2015-07-10 16:50:00
vol.18 ch.106 : Youngsters 37 Pages 2015-07-10 16:49:00
vol.18 ch.105 : Minor Heat Chapter 20 [Do As You Please] 35 Pages 2015-07-10 16:48:00
vol.18 ch.104 : Minor Heat Chapter 19 [Sailor's Song] 35 Pages 2015-07-10 16:47:00
vol.18 ch.103 36 Pages 2015-07-10 16:46:00
vol.18 ch.102 : Give Me Wings 52 Pages 2015-07-10 16:44:00
vol.18 ch.101 : Minor Heat Chapter 16 [Sprout] 40 Pages 2015-07-10 16:43:00
vol.18 ch.100 : Minor Heat 15 [Love and Pain and Reassurance] 36 Pages 2015-07-10 16:42:00
vol.18 ch.99 : Minor Heat Chapter 14 [The Time of Rainbow and Sneakers] 37 Pages 2015-07-10 16:40:00
vol.18 ch.98 : 365 Step March 37 Pages 2015-07-10 16:39:00
vol.18 ch.97 : The Passage of Time 42 Pages 2015-07-10 16:38:00
vol.18 ch.96.5 : Fanbook c.Side chapter 9 Pages 2015-07-10 16:38:00
vol.18 ch.96 42 Pages 2015-07-10 16:36:00
vol.18 ch.95 : Minor Heat Chapter 10 [Doll's House] 37 Pages 2015-07-10 16:34:00
vol.18 ch.94 : Minor Heat Chapter 9 [Broken Radio] 35 Pages 2015-07-10 16:33:00
vol.18 ch.93 : Minor Heat Chapter 8 [Between the Sky and You] 36 Pages 2015-07-10 16:32:00
vol.18 ch.92 : Minor Heat Chapter 7 [Someone in the Wind] 41 Pages 2015-07-10 16:30:00
vol.17 ch.91 40 Pages 2015-07-10 16:29:00
vol.17 ch.90 : Minor Heat Chapter 5 [A Good Day For Departure] 41 Pages 2015-07-10 16:28:00
vol.17 ch.89 : Minor Heat Chapter 4 [Look Up at the Stars in the Night] 36 Pages 2015-07-10 16:27:00
vol.17 ch.88 37 Pages 2015-07-10 16:26:00
vol.17 ch.87 : Minor Heat Chapter 2 [Sindbad of the Beach] 41 Pages 2015-07-10 16:24:00
vol.16 ch.86 : Minor Heat Chapter 1 [Strangers] + Extra [Wish] 44 Pages 2015-07-10 16:23:00
vol.16 ch.85 37 Pages 2015-07-10 16:22:00
vol.16 ch.84 35 Pages 2015-07-10 16:21:00
vol.16 ch.83 : Summer Solstice Chapter 21 [Lose] 36 Pages 2015-07-10 16:20:00
vol.16 ch.82 40 Pages 2015-07-10 16:19:00
vol.15 ch.81 39 Pages 2015-07-10 16:18:00
vol.15 ch.80 : Summer Solstice chapter 18 Love 40 Pages 2015-07-10 16:16:00
vol.15 ch.79 : Summer Solstice chapter 17 Project 35 Pages 2015-07-10 16:15:00
vol.15 ch.78 : Summer Solstice chapter 16 Thirst 37 Pages 2015-07-10 16:14:00
vol.15 ch.77 : Summer Solstice chapter 15 Understand 41 Pages 2015-07-10 16:13:00
vol.14 ch.76 : Summer Solstice chapter 14 Strain 40 Pages 2015-07-10 16:12:00
vol.14 ch.75 : Summer Solstice chapter 13 Fesent 41 Pages 2015-07-10 16:11:00
vol.14 ch.74 : Summer Solstice chapter 12 Know 36 Pages 2015-07-10 16:10:00
vol.14 ch.73 : Summer Solstice chapter 11 Speak 36 Pages 2015-07-10 16:09:00
vol.14 ch.72 : Summer Solstice chapter 10 Fall 41 Pages 2015-07-10 16:07:00
vol.14 ch.71 : Summer Solstice chapter 9 Fly 42 Pages 2015-07-10 16:06:00
vol.13 ch.70 : Summer Solstice chapter 8 Target 42 Pages 2015-07-10 16:05:00
vol.13 ch.69 : Summer Solstice chapter 7 Find 37 Pages 2015-07-10 16:04:00
vol.13 ch.68 : Summer Solstice chapter 6 Inquire 35 Pages 2015-07-10 16:03:00
vol.13 ch.67 : Summer Solstice chapter 5 Pick Up 42 Pages 2015-07-10 16:02:00
vol.12 ch.66 : Summer Solstice chapter 4 Think 45 Pages 2015-07-10 16:00:00
vol.12 ch.65 : Summer Solstice chapter 3 Confuse 37 Pages 2015-07-10 15:59:00
vol.12 ch.64 : Summer Solstice chapter 2 Feel 34 Pages 2015-07-10 15:58:00
vol.12 ch.63 : Summer Solstice chapter 1 Acquire 35 Pages 2015-07-10 15:57:00
vol.12 ch.62 : Ash chapter 12 Gathering 40 Pages 2015-07-10 15:56:00
vol.11 ch.61 : Ash chapter 11 Circulation 38 Pages 2015-07-10 15:55:00
vol.11 ch.60 : Ash chapter 10 Linkage 36 Pages 2015-07-10 15:53:00
vol.11 ch.59 : Ash chapter 9 And then There were None 41 Pages 2015-07-10 15:52:00
vol.11 ch.58 : Ash chapter 8 Wuthering Heights 37 Pages 2015-07-10 15:51:00
vol.11 ch.57 : Ash chapter 7 On the Beach 43 Pages 2015-07-10 15:50:00
vol.10 ch.56 : Ash chapter 6 Christmas Carol 41 Pages 2015-07-10 15:48:00
vol.10 ch.55 : Ash chapter 5 A Gate Difficult to Cross 40 Pages 2015-07-10 15:47:00
vol.10 ch.54 : Ash chapter 4 The Door to Summer 36 Pages 2015-07-10 15:46:00
vol.10 ch.53 : Ash chapter 3 The Forest is Alive 37 Pages 2015-07-10 15:45:00
vol.10 ch.52 : Ash chapter 2 Like Seaweed 44 Pages 2015-07-10 15:44:00
vol.9 ch.51 : Ash chapter 1 That Place 34 Pages 2015-07-10 15:43:00
vol.9 ch.50 : Hail of Corn chapter 15 New World Symphony Going Home 38 Pages 2015-07-10 15:42:00
vol.9 ch.49 : Hail of Corn chapter 14 Pictures at an Exhibition Gnomus 35 Pages 2015-07-10 15:41:00
vol.9 ch.48 : Hail of Corn chapter 13 Gypsy Life 37 Pages 2015-07-10 15:40:00
vol.9 ch.47 : Hail of Corn chapter 12 The Carnival of the Animals 45 Pages 2015-07-10 15:38:00
vol.8 ch.46 : Hail of Corn chapter 11 The Planets Suite- Jupiter 37 Pages 2015-07-10 15:37:00
vol.8 ch.45 : Hail of Corn chapter 10 The Planets Suite- Mars 35 Pages 2015-07-10 15:36:00
vol.8 ch.44 : Hail of Corn chapter 9 A Maiden's Prayer 36 Pages 2015-07-10 15:35:00
vol.8 ch.43 : Hail of Corn chapter 8 Moonlight Sonata 37 Pages 2015-07-10 15:34:00
vol.8 ch.42 : Hail of Corn chapter 7 By the Beautiful Blue Danube 46 Pages 2015-07-10 15:33:00
vol.7 ch.41 : Hail of Corn chapter 6 Ave Maria 35 Pages 2015-07-10 15:32:00
vol.7 ch.40 : Hail of Corn chapter 5 Song of Farewell 32 Pages 2015-07-10 15:31:00
vol.7 ch.39 : Hail of Corn chapter 4 My Fatherland the Moldau 39 Pages 2015-07-10 15:30:00
vol.7 ch.38 : Hail of Corn chapter 3 Humoresque 33 Pages 2015-07-10 15:29:00
vol.7 ch.37 : Hail of Corn chapter 2 Peer Gynt Suite No.1- Morning Mood 32 Pages 2015-07-10 15:28:00
vol.7 ch.36 : Hail of Corn chapter 1 Ride of the Valkyries 22 Pages 2015-07-10 15:27:00
vol.6 ch.35 : Rainwater chapter 10 32 Pages 2015-07-10 15:26:00
vol.6 ch.34 : Rainwater chapter 9 22 Pages 2015-07-10 15:25:00
vol.6 ch.33 : Rainwater chapter 8 16 Pages 2015-07-10 15:24:00
vol.6 ch.32 : Rainwater chapter 7 16 Pages 2015-07-10 15:23:00
vol.6 ch.31 : Rainwater chapter 6 16 Pages 2015-07-10 15:23:00
vol.6 ch.30 : Rainwater chapter 5 35 Pages 2015-07-10 15:22:00
vol.6 ch.29 : Rainwater chapter 4 18 Pages 2015-07-10 15:21:00
vol.6 ch.28 : Rainwater chapter 3 17 Pages 2015-07-10 15:21:00
vol.6 ch.27 : Rainwater chapter 2 9 Pages 2015-07-10 15:20:00
vol.6 ch.26 : Rainwater chapter 1 22 Pages 2015-07-10 15:20:00
vol.5 ch.25 : Pampas Grass Seeds chapter 6 June and October 35 Pages 2015-07-10 15:18:00
vol.5 ch.23 : Pampas Grass Seeds chapter 4 Milk and Grave 19 Pages 2015-07-10 15:17:00
vol.5 ch.22 : Pampas Grass Seeds chapter 3 Tobacco and Moon 36 Pages 2015-07-10 15:16:00
vol.5 ch.21 : Pampas Grass Seeds chapter 2 Earthworms and Corn 22 Pages 2015-07-10 15:16:00
vol.5 ch.20 : Pampas Grass Seeds chapter 1 Ants and Potatoes 30 Pages 2015-07-10 15:15:00
vol.4 ch.19 : Winter chapter 4 Journey 37 Pages 2015-07-10 15:14:00
vol.4 ch.18 : The Other Side Of The Rainbow 30 Pages 2015-07-10 15:13:00
vol.4 ch.17 : Winter chapter 2 Rain at Night 33 Pages 2015-07-10 15:12:00
vol.4 ch.16 : Winter chapter 1 Howling 32 Pages 2015-07-10 15:11:00
vol.4 ch.15 : East Wind chapter 4 Aim and Object 29 Pages 2015-07-10 15:10:00
vol.4 ch.14 : East Wind chapter 3 Sea of Trees 27 Pages 2015-07-10 15:09:00
vol.3 ch.13 : East Wind chapter 2 Spirit of Sound 40 Pages 2015-07-10 15:08:00
vol.3 ch.12 : East Wind chapter 1 Way Home 26 Pages 2015-07-10 15:07:00
vol.3 ch.11 : Beginning of Summer chapter 2 Castle 27 Pages 2015-07-10 15:06:00
vol.3 ch.10 : Beginning of Summer chapter 1 Arashi 40 Pages 2015-07-10 15:05:00
vol.3 ch.9 : Early Spring chapter 4 Life 53 Pages 2015-07-10 15:04:00
vol.2 ch.8 : Early Spring chapter 3 Stars 43 Pages 2015-07-10 15:02:00
vol.2 ch.7 : Early Spring chapter 2 Water 26 Pages 2015-07-10 15:02:00
vol.2 ch.6 : Early Spring chapter 1 Hana 52 Pages 2015-07-10 15:00:00
vol.2 ch.5 : Island chapter 5 The First Day 58 Pages 2015-07-10 14:59:00
vol.1 ch.4 : Island chapter 4 Tender Beast 51 Pages 2015-07-10 14:56:00
vol.1 ch.3 : Island chapter 3 Quite Step 40 Pages 2015-07-10 14:54:00
vol.1 ch.2 : Island chapter 2 White Sound 40 Pages 2015-07-10 14:53:00
vol.1 ch.1 : Island chapter 1 Slow Awakening 55 Pages 2015-07-10 14:48:00

RELATIVE MANGA